Погода в Белогорке

Погода в Белогорке : погода сейчас, прогноз погоды и архив. Всё, что Вы хотите узнать о погоде в Белогорке!

Хотите узнать прогноз погоды в Белогорке? Тогда Вам сюда: Погода в Белогорке

Поиск расширенной информации на нашем сайте:

Другие новости

Новости СМИ2

Главная страница сайта

Новости сайта

03.07.2017

Напоминаем, что на нашем специализированном сайте Метеоцентр.Азия вы можете получить высокодетализированные автоматические прогнозы погоды по пунктам России, СНГ и мира в авиационном формате (включающие направление и скорость ветра, видимость, явления погоды, количество и форму облачности, нижнюю и верхнюю границу облачности).


Погода в Белогорке - сегодня

Время (UTC), дата Ветер
(°,м/с) 
Видим.   Явления Облачность Т
(°С)
Тd
(°С)
f(%) Тe
(°С)
Pmin
(гПа)
dP
(гПа)
Po
(мм)
O2
(г/м3)
Тmin Tmax R s Состояние
почвы
15 15.07.18 050 (СВ) 10 км    3/3 600 м 
[Cu hum]
+27.5 +15.5 48 +37  1011.2  751  272           
21 15.07.18 тихо ()   20000 м    3/0 верхняя 
[Ci fib]
+15.1 +14.4 96 +23  1013.6  1.1  752  284           
00 16.07.18 тихо ()   20000 м    ясно 
+13.4 +12.9 97 +19  1014.3  0.6  753  287           
09 16.07.18 030 (СВ) 10 км    3/3 600 м 
[Cu hum]
+27.6 +15.8 49 +38  1014.3  -0.2  753  272           
12 16.07.18 020 (С) 10 км    4/4 600 м 
[Cu hum]
+28.7 +12.2 36 +33  1013.5  -0.7  753  272           
18 16.07.18 030 (СВ) 10 км    ясно 
+24 +12.4 48 +28  1014.1  753  277    +29.3       
21 16.07.18 030 (СВ) 20000 м    ясно 
+18 +13.5 75 +25  1014.7  0.4  753  282           
00 17.07.18 040 (СВ) 20000 м    ясно 
+17 +14.8 87 +26  1015  0.2  753  283           
09 17.07.18 070 (В) 10 км    3/3 600 м 
[Cu hum]
+27.6 +14.8 46 +36  1014.6  -0.3  753  273           
15 17.07.18 030 (СВ) 10 км    3/3 600 м 
[Cu hum]
+28.6 +13.9 41 +35  1012.7  -0.8  752  272           
21 17.07.18 040 (СВ) 20000 м    ясно 
+19.8 +14.6 72 +29  1014  0.8  753  280           
00 18.07.18 030 (СВ) 20000 м    ясно 
+17.7 +13.7 77 +25  1013.7  -0.3  752  282           
09 18.07.18 040 (СВ) 10 км    ясно 
+26.1 +16.8 57 +38  1012.6  -1  752  273           
21 18.07.18 030 (СВ) 20000 м    6/0 средняя 
[Ac trans]
+19.9 +15.5 76 +31  1011.9  0.3  751  279           
00 19.07.18 020 (С) 20000 м    6/0 средняя 
[Ac trans]
+18.5 +14.3 77 +26  1011.9  0.1  751  280           
09 19.07.18 050 (СВ) 10 км    5/5 600 м 
[Cu hum]
+25.5 +16 56 +36  1010.4  -0.6  750  273           
12 19.07.18 040 (СВ) 10 км    6/4 600 м средняя 
[Cu hum|Ac trans]
+26.6 +16 52 +37  1010  -0.4  750  272           
21 19.07.18 030 (СВ) 20000 м  в посл. час ливневой дождь  9/5 300 м кучево-дожд., средняя 
[Cb cap|Ac trans]
+18.8 +17.9 95 +34  1010.7  0.1  750  279           
03 20.07.18 030 (СВ) 10 км  {ливн. осадки}  9/0 средняя 
[Ac As]
+18.3 +17.6 96 +33  1009.3  -1.1  749  279  +17.9       
09 20.07.18 040 (СВ) 10 км    9/5 300 м кучево-дожд., средняя 
[Cb cap|Ac trans]
+23.1 +18 73 +38  1007.4  -0.8  748  274           
21 20.07.18 040 (СВ) 20000 м    9/9 480 м кучево-дожд. 
[Cb cap]
+19.8 +18.8 94 +37  1006.3  -0.5  747  276           
03 21.07.18 040 (СВ) 4000 м  слаб. морось  10/10 360 м 
[St]
+19.5 +18.9 96 +37  1005.1  -0.4  746  276  +19.1    0.0     
21 21.07.18 220 (ЮЗ) 20000 м    9/4 600 м средняя 
[Sc|Ac trans]
+20.3 +19.4 95 +38  1006.9  0.8  747  276           
00 22.07.18 тихо ()   н/о    н/о 
+17.4 +17.2 99 +30  1007.5  0.5  748  279           
03 22.07.18 160 (Ю) 1000 м  дымка  10/10 330 м 
[St]
+18.3 +18.1 99 +35  1008.1  0.7  748  278  +16.5         
Время (UTC), дата Ветер
(°,м/с) 
Видим.   Явления Облачность Т
(°С)
Тd
(°С)
f(%) Тe
(°С)
Pmin
(гПа)
dP
(гПа)
Po
(мм)
O2
(г/м3)
Тmin Tmax R s Состояние
почвы

Для получения пояснительной информации подведите курсор к названию столбца.

ПОГОДА в Белогорке - архив

Всё, что Вы хотите узнать о погоде в Белогорке - удобно и подробно!

Выберите нужную дату (начиная с 1 января 2015* года) и нажмите кнопку "Найти".
Будут отображены архивные сводки погоды по пункту Белогорка, начиная с указанной даты.


Отображать данные в формате CSV (для использования в таблицах Excel)


Внимание! Наш архив погоды предназначен исключительно для личного некоммерческого использования в познавательных целях. Если Вам необходимы официальные справки о состоянии погоды (для производственных, юридических, коммерческих и т.п. целей), обращайтесь в органы Росгидромета.

*Примечание: данная дата относится к архиву по метеостанциям СССР (Россия, СНГ, Балтия).
Архив по метеостанциям Зарубежной Европы и Азии (кроме Китая) хранится 10 дней, по другим регионам земного шара (Китай, Африка, Америка, Австралия, Океания) - 1 день.

Белогорка - район местоположения метеостанции


Название, широта, долгота, высота метеостанции:
Белогорка 59.3°ш. 30.1°д. 90 м над ур. моря [Российская Федерация]

Дополнительная информация

В oтличие oт бoльшинства пoгoдных сайтoв мы публикуем пoдрoбную метеoинфoрмацию в детальнoм прoфессиoнальнoм фoрмате.

Характеристики температуры и влажнoсти вoздуха измеряются на высoте 2 м в тени вдали oт зданий и деревьев.
Скoрoсть ветра измеряется на высoте 10 м (на урoвне рoста челoвека скoрoсть ветра ниже в 1.5-2 раза). Если метеoстанция нахoдится в гoрoде или в лесу, тo скoрoсть ветра занижена на 2-4 м/с пo сравнению с oткрытым местoм. Скoрoсть ветра над акватoриями крупных рек и oзёр, а также на вершинах хoлмoв на 2-5 м/с выше, чем в oбычных услoвиях.
Атмoсфернoе давление в разных тoчках местнoсти мoжет значительнo oтличаться oт давления на метеoстанции, в зависимoсти oт услoвий рельефа (при пoдъёме на 10 м давление пoнижается примернo на 1 мм рт.ст.).